Date String (YYYY-MM-DD hh:mm:ss) UTC,Instrument flags,absolute air pressure of the measurement (hPa),sample flow rate (lpm),inlet stack bypass flow (lpm),air temperature of the measurement (°C),ambient temperature measured by the external sensor (°C),aerosol sample conditioner tube jacket temperature (°C),OPC LED temperature (°C),internal box temperature (°C),relative humidity of the measurement (%),span deviation,mass concentration of particles derived from Lorenz-Mie calculation of OPC scattering (μg/m³),mass concentration of particles derived from Lorenz-Mie calculation of OPC scattering (μg/m³),mass concentration of particles derived from Lorenz-Mie calculation of OPC scattering (μg/m³)
DateTimeUTC,F1_M11,P_M11,Q1_M11,Q2_M11,T1_M11,T2_M11,T3_M11,T4_M11,T5_M11,U1_M11,ZSPAN_M11,X0_M11,X2_M11,X1_M11
2023-11-20 22:00:00,SystemResetWarning,0835.6,5.00,000.00,023.2,022.3,000.0,031.3,024.5,13.5,0000.0,0002.66,0001.22,0001.06
2023-11-20 22:01:00,SystemResetWarning,0835.6,4.99,000.00,023.2,022.3,000.0,031.3,024.5,13.4,0000.0,0002.64,0001.21,0001.07
2023-11-20 22:02:00,SystemResetWarning,0835.6,4.99,000.00,023.2,022.4,000.0,031.3,024.6,13.5,0000.0,0003.37,0001.20,0001.07
2023-11-20 22:03:00,SystemResetWarning,0835.7,5.01,000.00,023.2,022.4,000.0,031.4,024.6,13.4,0000.0,0003.41,0001.20,0001.08
2023-11-20 22:04:00,SystemResetWarning,0835.6,5.00,000.00,023.2,022.4,000.0,031.4,024.6,13.5,0000.0,0003.40,0001.20,0001.09
2023-11-20 22:05:00,SystemResetWarning,0835.6,5.00,000.00,023.2,022.4,000.0,031.4,024.6,13.5,0000.0,0003.47,0001.23,0001.10
2023-11-20 22:06:00,SystemResetWarning,0835.8,5.00,000.00,023.2,022.4,000.0,031.4,024.6,13.4,0000.0,0003.48,0001.23,0001.10
2023-11-20 22:07:00,SystemResetWarning,0835.8,5.00,000.00,023.2,022.4,000.0,031.4,024.6,13.4,0000.0,0003.03,0001.22,0001.10
2023-11-20 22:08:00,SystemResetWarning,0835.8,5.00,000.00,023.2,022.4,000.0,031.4,024.6,13.4,0000.0,0003.19,0001.23,0001.10
2023-11-20 22:09:00,SystemResetWarning,0835.8,5.00,000.00,023.3,022.4,000.0,031.4,024.6,13.4,0000.0,0003.25,0001.25,0001.10
2023-11-20 22:10:00,SystemResetWarning,0835.9,4.99,000.00,023.3,022.4,000.0,031.4,024.6,13.4,0000.0,0003.25,0001.25,0001.10
2023-11-20 22:11:00,SystemResetWarning,0835.9,4.99,000.00,023.3,022.4,000.0,031.4,024.6,13.5,0000.0,0003.27,0001.27,0001.10
2023-11-20 22:12:00,SystemResetWarning,0835.9,5.01,000.00,023.3,022.5,000.0,031.4,024.6,13.5,0000.0,0003.31,0001.29,0001.10
2023-11-20 22:13:00,SystemResetWarning,0835.9,5.00,000.00,023.3,022.5,000.0,031.5,024.7,13.4,0000.0,0002.54,0001.29,0001.10
2023-11-20 22:14:00,SystemResetWarning,0835.9,5.00,000.00,023.3,022.5,000.0,031.5,024.7,13.4,0000.0,0002.42,0001.29,0001.10
2023-11-20 22:15:00,SystemResetWarning,0835.9,5.00,000.00,023.3,022.5,000.0,031.5,024.7,13.4,0000.0,0002.62,0001.31,0001.10
2023-11-20 22:16:00,SystemResetWarning,0835.9,5.00,000.00,023.3,022.5,000.0,031.5,024.7,13.5,0000.0,0002.86,0001.31,0001.09
2023-11-20 22:17:00,SystemResetWarning,0836.0,5.00,000.00,023.3,022.5,000.0,031.5,024.7,13.5,0000.0,0003.20,0001.32,0001.09
2023-11-20 22:18:00,SystemResetWarning,0836.0,5.00,000.00,023.3,022.5,000.0,031.5,024.7,13.4,0000.0,0003.21,0001.33,0001.09
2023-11-20 22:19:00,SystemResetWarning,0836.1,5.00,000.00,023.3,022.5,000.0,031.5,024.7,13.4,0000.0,0002.53,0001.32,0001.08
2023-11-20 22:20:00,SystemResetWarning,0836.1,5.00,000.00,023.4,022.5,000.0,031.5,024.7,13.4,0000.0,0002.54,0001.31,0001.08
2023-11-20 22:21:00,SystemResetWarning,0836.1,5.00,000.00,023.4,022.5,000.0,031.5,024.7,13.4,0000.0,0002.48,0001.29,0001.08
2023-11-20 22:22:00,SystemResetWarning,0836.1,5.00,000.00,023.4,022.5,000.0,031.5,024.7,13.4,0000.0,0002.47,0001.26,0001.07
2023-11-20 22:23:00,SystemResetWarning,0836.1,5.00,000.00,023.4,022.5,000.0,031.5,024.7,13.4,0000.0,0002.45,0001.22,0001.06
2023-11-20 22:24:00,SystemResetWarning,0836.2,5.00,000.00,023.4,022.5,000.0,031.6,024.7,13.4,0000.0,0002.44,0001.21,0001.06
2023-11-20 22:25:00,SystemResetWarning,0836.2,5.00,000.00,023.4,022.5,000.0,031.6,024.7,13.4,0000.0,0003.51,0001.20,0001.05
2023-11-20 22:26:00,SystemResetWarning,0836.2,5.00,000.00,023.4,022.5,000.0,031.6,024.8,13.4,0000.0,0003.84,0001.18,0001.05
2023-11-20 22:27:00,SystemResetWarning,0836.1,5.00,000.00,023.4,022.5,000.0,031.6,024.8,13.4,0000.0,0004.10,0001.16,0001.05
2023-11-20 22:28:00,SystemResetWarning,0836.2,4.99,000.00,023.4,022.5,000.0,031.6,024.8,13.3,0000.0,0004.00,0001.16,0001.05
2023-11-20 22:29:00,SystemResetWarning,0836.2,4.99,000.00,023.4,022.5,000.0,031.6,024.8,13.3,0000.0,0004.02,0001.15,0001.04
2023-11-20 22:30:00,SystemResetWarning,0836.2,5.00,000.00,023.4,022.5,000.0,031.6,024.8,13.2,0000.0,0004.17,0001.15,0001.04
2023-11-20 22:31:00,SystemResetWarning,0836.2,5.01,000.00,023.4,022.5,000.0,031.6,024.8,13.2,0000.0,0004.46,0001.13,0001.03
2023-11-20 22:32:00,SystemResetWarning,0836.2,5.01,000.00,023.4,022.5,000.0,031.6,024.8,13.2,0000.0,0004.43,0001.11,0001.02
2023-11-20 22:33:00,SystemResetWarning,0836.3,5.00,000.00,023.4,022.5,000.0,031.6,024.8,13.3,0000.0,0004.48,0001.14,0001.02
2023-11-20 22:34:00,SystemResetWarning,0836.3,5.00,000.00,023.4,022.5,000.0,031.6,024.8,13.3,0000.0,0004.44,0001.15,0001.02
2023-11-20 22:35:00,SystemResetWarning,0836.3,5.00,000.00,023.4,022.5,000.0,031.6,024.8,13.3,0000.0,0004.46,0001.15,0001.01
2023-11-20 22:36:00,SystemResetWarning,0836.4,5.00,000.00,023.4,022.5,000.0,031.6,024.8,13.4,0000.0,0003.70,0001.15,0001.00
2023-11-20 22:37:00,SystemResetWarning,0836.4,5.00,000.00,023.4,022.5,000.0,031.6,024.8,13.4,0000.0,0002.91,0001.15,0000.99
2023-11-20 22:38:00,SystemResetWarning,0836.4,5.00,000.00,023.5,022.5,000.0,031.7,024.8,13.4,0000.0,0002.63,0001.14,0000.99
2023-11-20 22:39:00,SystemResetWarning,0836.4,5.00,000.00,023.5,022.5,000.0,031.7,024.8,13.4,0000.0,0002.08,0001.12,0000.98
2023-11-20 22:40:00,SystemResetWarning,0836.5,5.00,000.00,023.5,022.5,000.0,031.7,024.8,13.4,0000.0,0001.97,0001.09,0000.97
2023-11-20 22:41:00,SystemResetWarning,0836.4,5.00,000.00,023.5,022.5,000.0,031.7,024.8,13.4,0000.0,0002.00,0001.08,0000.96
2023-11-20 22:42:00,SystemResetWarning,0836.5,5.00,000.00,023.5,022.5,000.0,031.7,024.8,13.3,0000.0,0001.82,0001.07,0000.96
2023-11-20 22:43:00,SystemResetWarning,0836.5,5.00,000.00,023.5,022.5,000.0,031.7,024.8,13.4,0000.0,0001.69,0001.07,0000.95
2023-11-20 22:44:00,SystemResetWarning,0836.5,5.00,000.00,023.4,022.5,000.0,031.7,024.8,13.5,0000.0,0001.66,0001.05,0000.94
2023-11-20 22:45:00,SystemResetWarning,0836.6,5.00,000.00,023.5,022.5,000.0,031.7,024.8,13.5,0000.0,0001.75,0001.02,0000.93
2023-11-20 22:46:00,SystemResetWarning,0836.6,4.99,000.00,023.5,022.5,000.0,031.7,024.8,13.5,0000.0,0001.88,0001.02,0000.92
2023-11-20 22:47:00,SystemResetWarning,0836.6,5.00,000.00,023.5,022.5,000.0,031.7,024.8,13.5,0000.0,0003.09,0001.03,0000.91
2023-11-20 22:48:00,SystemResetWarning,0836.6,5.00,000.00,023.5,022.5,000.0,031.7,024.7,13.6,0000.0,0003.17,0001.04,0000.91
2023-11-20 22:49:00,SystemResetWarning,0836.6,5.00,000.00,023.4,022.5,000.0,031.7,024.8,13.7,0000.0,0003.21,0001.04,0000.90
2023-11-20 22:50:00,SystemResetWarning,0836.6,5.00,000.00,023.4,022.5,000.0,031.7,024.8,13.8,0000.0,0003.29,0001.04,0000.90
2023-11-20 22:51:00,SystemResetWarning,0836.6,5.00,000.00,023.5,022.5,000.0,031.7,024.8,13.8,0000.0,0003.32,0001.05,0000.90
2023-11-20 22:52:00,SystemResetWarning,0836.7,5.01,000.00,023.5,022.5,000.0,031.7,024.7,13.9,0000.0,0003.50,0001.08,0000.89
2023-11-20 22:53:00,SystemResetWarning,0836.7,5.00,000.00,023.4,022.5,000.0,031.7,024.7,14.0,0000.0,0003.22,0001.06,0000.88
2023-11-20 22:54:00,SystemResetWarning,0836.7,5.00,000.00,023.4,022.5,000.0,031.7,024.8,14.0,0000.0,0003.19,0001.07,0000.87
2023-11-20 22:55:00,SystemResetWarning,0836.8,5.00,000.00,023.4,022.5,000.0,031.7,024.7,14.0,0000.0,0003.19,0001.07,0000.87
2023-11-20 22:56:00,SystemResetWarning,0836.8,4.99,000.00,023.4,022.5,000.0,031.7,024.7,14.0,0000.0,0003.18,0001.08,0000.86
2023-11-20 22:57:00,SystemResetWarning,0836.8,5.01,000.00,023.4,022.5,000.0,031.7,024.7,14.1,0000.0,0002.94,0001.06,0000.85
2023-11-20 22:58:00,SystemResetWarning,0836.8,5.01,000.00,023.4,022.5,000.0,031.7,024.7,14.1,0000.0,0002.46,0001.06,0000.85
2023-11-20 22:59:00,SystemResetWarning,0836.8,5.01,000.00,023.4,022.5,000.0,031.7,024.7,14.2,0000.0,0001.84,0001.02,0000.84
